{"data":{"norad_id":64493,"epoch":"2026-05-25T04:25:56.314848Z","epoch_age_seconds":59261,"freshness":"FRESH","line1":"1 64493U 25133X   26145.18467957  .00024192  00000+0  70235-3 0  9992","line2":"2 64493  53.1597 119.1034 0001324  70.8700 289.2447 15.35393660 52935","mean_motion":15.3539366,"eccentricity":0.0001324,"inclination_deg":53.1597,"raan_deg":119.1034,"arg_perigee_deg":70.87,"mean_anomaly_deg":289.2447,"bstar":0.00070235,"rev_number":5293,"period_min":93.787022671437,"perigee_km":458.84612973864,"apogee_km":460.65680260448,"semimajor_km":6837.8884661716,"source":"CELESTRAK","updated_at":"2026-05-25T13:38:20.461846Z"}}